User: anonymous   Login
Location: Musselshell
(46.5176°N, 108.0911°W)
Time: 08:46:09
(UTC+00:00)
Language:

BEESAT - Orbit

View from above orbital plane
View from above orbital plane
View from above satellite
View from above satellite

Ground track
Ground track

The orbit data is extracted from the following two-line orbital elements,

1 35933U 09051C   22177.80905223  .00000391  00000-0  97965-4 0  9999
2 35933  98.5620  35.6312 0006580  40.9116 319.2574 14.56891247677531
Epoch (UTC): 26 June 2022 19:25:02
Eccentricity: 0.0006580
inclination: 98.5620°
perigee height: 698 km
apogee height: 708 km
right ascension of ascending node: 35.6312°
argument of perigee: 40.9116°
revolutions per day: 14.56891247
mean anomaly at epoch: 319.2574°
orbit number at epoch: 67753

The dashed part of the orbit path shows where the satellite is in the earth's shadow,  

DLR